Location: Big Meadows
(38.5260°N, 78.4400°W)
Time: 11:09:21
(UTC-04:00)

Amateur Radio Satellites - All Passes

Search period start: 03 August 2015 10:39
Search period end: 04 August 2015 10:39
Location: Big Meadows, 38.5260°N, 78.4400°W

Satellite Date Start Highest point End Downlink Frequencies (MHz)
Time Altitude Azimuth
Cosmos 2491 03 Aug 10:45:16 10:46:14 10° 77° (ENE) 10:48:03 435.465 / 435.565
COMPASS 1 03 Aug 10:46:56 10:50:50 36° 288° (WNW) 10:54:41 437.405
POLYITAN 1 03 Aug 10:50:38 10:53:57 24° 70° (ENE) 10:57:22 437.675
HO-68 03 Aug 10:51:50 10:58:37 46° 293° (WNW) 11:05:20 435.675
DELFI C3 03 Aug 10:55:21 10:59:23 64° 100° (E) 11:03:23 145.870
ZACube-1 03 Aug 10:56:00 11:00:31 60° 100° (E) 11:05:04 437.345
BUGSAT 1 03 Aug 10:58:53 11:01:26 17° 68° (ENE) 11:04:07 437.445
POPSAT HIP 1 03 Aug 11:06:12 11:09:58 34° 72° (ENE) 11:13:49 437.405
SEEDS 03 Aug 11:06:41 11:09:43 19° 291° (WNW) 11:12:36 437.485
M-CUBED/EXP-1 PRIME 03 Aug 11:12:49 11:14:28 12° 268° (W) 11:15:56 437.505
AIST 2 03 Aug 11:13:27 11:15:15 12° 251° (WSW) 11:16:50 435.215
QB50P2 03 Aug 11:14:15 11:18:14 44° 73° (ENE) 11:22:17 145.880/145.840
CUTE 1.7 + AOD 2 03 Aug 11:14:15 11:16:23 13° 294° (WNW) 11:18:17 437.475
FUNcube-1 03 Aug 11:16:33 11:21:08 83° 285° (WNW) 11:25:44 145.935
PCSat 03 Aug 11:22:02 11:23:58 12° 321° (NW) 11:25:39 145.827
UNISAT 6 03 Aug 11:22:04 11:26:21 54° 261° (W) 11:30:44 437.425
HUMSAT D 03 Aug 11:23:15 11:27:26 47° 98° (E) 11:31:38 437.325/437.525
UWE-3 03 Aug 11:25:20 11:29:49 49° 286° (WNW) 11:34:19 435.000/436.395/437.385
Oscar 11 03 Aug 11:25:40 11:29:44 38° 288° (WNW) 11:33:44 145.826/435.025
AAUSAT CUBESAT 2 03 Aug 11:27:18 11:30:00 16° 292° (WNW) 11:32:31 437.432
UKube-1 03 Aug 11:27:19 11:31:05 29° 96° (E) 11:34:54 .
CINEMA 3 03 Aug 11:32:09 11:35:24 18° 292° (WNW) 11:38:35 145.822/145.860
O/OREOS (USA 219) 03 Aug 11:35:08 11:39:44 74° 68° (ENE) 11:44:19 437.305
DUCHIFAT 1 03 Aug 11:35:49 11:39:59 76° 76° (ENE) 11:44:10 145.980
QB50P1 03 Aug 11:40:58 11:45:09 89° 257° (WSW) 11:49:23 145.935-145.965
NANOSAT C BR1 03 Aug 11:41:11 11:45:22 90° 252° (WSW) 11:49:35 145.865
AISAT 03 Aug 11:44:24 11:48:20 31° 97° (E) 11:52:17 437.250
CUBEBUG 2 03 Aug 11:46:30 11:50:21 25° 290° (WNW) 11:54:07 437.445
CUBEBUG 1 03 Aug 11:51:28 11:54:39 20° 93° (E) 11:57:57 437.445
DX 1 03 Aug 11:58:48 12:03:09 78° 102° (ESE) 12:07:29 434.975-435.025
YUBILEINY 03 Aug 12:00:42 12:09:35 79° 82° (E) 12:18:25 435.215
TIGRISAT 03 Aug 12:05:48 12:08:59 19° 268° (W) 12:12:06 435.000
50 SAT 03 Aug 12:07:39 12:11:38 72° 101° (E) 12:15:35 437.505
ANTELSAT 03 Aug 12:08:57 12:11:55 17° 269° (W) 12:14:47 437.575/2403.000
SPROUT 03 Aug 12:19:25 12:20:50 12° 89° (E) 12:22:32 437.525
VELOX 1 03 Aug 12:22:19 12:26:45 82° 102° (ESE) 12:31:10 145.980
POLYITAN 1 03 Aug 12:26:13 12:29:47 26° 265° (W) 12:33:17 437.675
AIST 1 03 Aug 12:31:18 12:35:40 81° 278° (W) 12:40:00
BUGSAT 1 03 Aug 12:32:58 12:36:41 34° 263° (W) 12:40:21 437.445
Cosmos 2491 03 Aug 12:33:03 12:41:42 69° 93° (E) 12:50:22 435.465 / 435.565
ZACube-1 03 Aug 12:34:08 12:36:25 13° 294° (WNW) 12:38:29 437.345
POPSAT HIP 1 03 Aug 12:43:05 12:45:59 17° 268° (W) 12:48:45 437.405
ESTCUBE 1 03 Aug 12:43:45 12:48:15 82° 284° (WNW) 12:52:43 437.505/2401.250
Oscar 19 03 Aug 12:45:16 12:48:42 19° 66° (ENE) 12:52:20 437.125/150
QB50P2 03 Aug 12:52:12 12:54:25 14° 269° (W) 12:56:28 145.880/145.840
HUMSAT D 03 Aug 13:00:18 13:02:49 15° 293° (WNW) 13:05:09 437.325/437.525
UKube-1 03 Aug 13:03:41 13:07:05 22° 291° (WNW) 13:10:23 .
AISAT 03 Aug 13:21:18 13:24:46 22° 291° (WNW) 13:28:07 437.250
CUBEBUG 1 03 Aug 13:27:13 13:31:05 31° 289° (WNW) 13:34:54 437.445
Cosmos 2504 03 Aug 13:38:28 13:46:26 44° 75° (ENE) 13:54:36 435.465 / 435.565
SPROUT 03 Aug 13:53:06 13:57:19 54° 286° (WNW) 14:01:32 437.525
TISAT 1 03 Aug 13:54:48 13:59:02 88° 284° (WNW) 14:03:16 437.305
YUBILEINY 03 Aug 13:59:26 14:05:33 20° 279° (W) 14:11:10 435.215
Gurwin Techsat 1B 03 Aug 14:03:13 14:07:49 32° 69° (ENE) 14:12:31 435.225
BEESAT 03 Aug 14:06:01 14:09:15 19° 92° (E) 14:12:38 436.000
ITAMSAT 1 03 Aug 14:10:34 14:15:08 33° 69° (ENE) 14:19:47 435.822/435.867
JAS-2 03 Aug 14:22:26 14:27:00 22° 61° (ENE) 14:32:11 435.910
Oscar 19 03 Aug 14:22:46 14:27:43 50° 261° (W) 14:32:42 437.125/150
SWISSCUBE 03 Aug 14:26:12 14:30:29 33° 97° (E) 14:34:46 437.505
Cosmos 2491 03 Aug 14:32:27 14:39:26 25° 294° (WNW) 14:46:05 435.465 / 435.565
ITUPSAT 1 03 Aug 14:48:12 14:52:51 50° 99° (E) 14:57:29 437.325
AO-7 03 Aug 15:03:08 15:10:09 32° 60° (ENE) 15:17:21 29.400- 29.500
DANDE 03 Aug 15:12:01 15:15:39 30° 79° (ENE) 15:20:23 436.750
CUSAT 1 03 Aug 15:13:09 15:17:34 53° 80° (E) 15:23:27 437.405
Cosmos 2504 03 Aug 15:30:50 15:38:35 39° 272° (W) 15:46:17 435.465 / 435.565
BEESAT 03 Aug 15:42:49 15:47:20 42° 288° (WNW) 15:51:47 436.000
Gurwin Techsat 1B 03 Aug 15:43:07 15:47:47 30° 265° (W) 15:52:24 435.225
ITAMSAT 1 03 Aug 15:50:09 15:54:40 28° 265° (W) 15:59:05 435.822/435.867
KKS-1 03 Aug 15:52:30 15:56:43 40° 98° (E) 16:00:56 437.445
HORYU 2 03 Aug 15:55:48 16:00:01 45° 73° (ENE) 16:04:19 437.375
SWISSCUBE 03 Aug 16:04:19 16:08:11 24° 292° (WNW) 16:11:56 437.505
JAS-2 03 Aug 16:05:22 16:11:24 64° 260° (W) 16:18:18 435.910
ITUPSAT 1 03 Aug 16:27:18 16:30:22 17° 295° (WNW) 16:33:15 437.325
PCSat 03 Aug 16:42:22 16:44:13 12° 40° (NE) 16:46:18 145.827
GONETS M04 03 Aug 16:42:53 16:50:35 35° 71° (ENE) 16:58:27
SO-50 03 Aug 16:45:12 16:47:52 15° 40° (NE) 16:50:40 436.795
VERMONT LUNAR 03 Aug 16:45:46 16:47:59 18° 149° (SSE) 16:50:15 437.305
AO-7 03 Aug 16:54:22 17:02:34 57° 258° (WSW) 17:10:48 29.400- 29.500
STARS 03 Aug 16:55:15 16:59:40 67° 285° (WNW) 17:04:04 437.465
DANDE 03 Aug 16:55:20 16:58:44 22° 263° (W) 17:02:44 436.750
CUSAT 1 03 Aug 16:57:06 17:00:08 16° 266° (W) 17:03:18 437.405
MOZHAYETS 4 03 Aug 17:02:22 17:06:19 28° 95° (E) 17:10:18
KKS-1 03 Aug 17:29:59 17:33:05 18° 293° (WNW) 17:36:02 437.445
HORYU 2 03 Aug 17:34:14 17:36:57 15° 269° (W) 17:39:30 437.375
CUTE-I 03 Aug 17:37:33 17:41:22 21° 66° (ENE) 17:45:22 437.470
Cubesat XI-IV 03 Aug 18:20:50 18:26:01 52° 72° (ENE) 18:31:15 437.490
VERMONT LUNAR 03 Aug 18:21:14 18:24:24 79° 162° (SSE) 18:27:35 437.305
PCSat 03 Aug 18:23:19 18:28:44 70° 60° (ENE) 18:34:08 145.827
SO-50 03 Aug 18:24:12 18:29:11 89° 227° (SW) 18:34:01 436.795
Cosmos 2499 03 Aug 18:27:46 18:35:53 41° 73° (ENE) 18:44:08 435.465 / 435.565
GONETS M04 03 Aug 18:39:26 18:47:42 49° 270° (W) 18:55:55
MOZHAYETS 4 03 Aug 18:39:35 18:43:28 26° 290° (WNW) 18:47:15
STRAND 1 03 Aug 19:03:24 19:05:33 13° 89° (E) 19:08:00 437.568
CUBESAT XI-V 03 Aug 19:03:37 19:08:02 45° 99° (E) 19:12:27 437.345
CUTE-I 03 Aug 19:15:57 19:21:08 49° 261° (W) 19:26:20 437.470
PHONESAT 2.4 03 Aug 19:19:37 19:22:52 37° 154° (SSE) 19:26:10 2401.200-2431.200
HO-68 03 Aug 19:32:49 19:37:54 22° 60° (ENE) 19:43:13 435.675
RS-15 03 Aug 19:50:11 19:56:55 20° 102° (ESE) 20:04:28 29.354- 29.394
GOMX 1 03 Aug 19:54:23 19:57:55 27° 71° (ENE) 20:01:27 467.674
BRITE-PL 03 Aug 19:57:08 20:01:23 53° 75° (ENE) 20:05:28 437.365/2234.400
VERMONT LUNAR 03 Aug 19:58:04 20:01:12 57° 359° (N) 20:04:21 437.305
Cubesat XI-IV 03 Aug 20:02:44 20:06:29 18° 269° (W) 20:10:03 437.490
COMPASS 1 03 Aug 20:04:26 20:05:00 10° 65° (ENE) 20:05:50 437.405
PCSat 03 Aug 20:08:41 20:11:37 14° 255° (WSW) 20:14:16 145.827
Cosmos 2499 03 Aug 20:20:54 20:29:08 44° 271° (W) 20:37:15 435.465 / 435.565
SEEDS 03 Aug 20:21:22 20:24:33 21° 69° (ENE) 20:27:49 437.485
ISS 03 Aug 20:22:43 20:25:56 62° 138° (SE) 20:29:10 145.825
CUTE 1.7 + AOD 2 03 Aug 20:28:12 20:31:57 31° 72° (ENE) 20:35:47 437.475
PRISM 03 Aug 20:33:14 20:37:22 83° 281° (WNW) 20:41:26 437.425
CANX-2 03 Aug 20:36:42 20:40:44 44° 74° (ENE) 20:44:51 2200.000
STRAND 1 03 Aug 20:40:15 20:45:20 66° 285° (WNW) 20:50:21 437.568
AAUSAT CUBESAT 2 03 Aug 20:40:27 20:43:42 23° 70° (ENE) 20:47:04 437.432
CUBESAT XI-V 03 Aug 20:42:08 20:45:08 17° 293° (WNW) 20:47:59 437.345
Oscar 11 03 Aug 20:45:27 20:47:01 12° 65° (ENE) 20:48:49 145.826/435.025
CINEMA 3 03 Aug 20:54:58 20:58:40 32° 72° (ENE) 21:02:30 145.822/145.860
PHONESAT 2.4 03 Aug 20:57:14 21:00:44 73° 350° (N) 21:04:15 2401.200-2431.200
DOVE 4 03 Aug 21:06:08 21:10:16 73° 259° (WSW) 21:14:26 437.250
CUBEBUG 2 03 Aug 21:07:22 21:10:28 21° 69° (ENE) 21:13:44 437.445
HO-68 03 Aug 21:17:55 21:25:02 70° 257° (WSW) 21:32:12 435.675
GOMX 1 03 Aug 21:32:51 21:36:06 21° 266° (W) 21:39:14 467.674
VERMONT LUNAR 03 Aug 21:34:51 21:38:02 83° 198° (SSW) 21:41:12 437.305
COMPASS 1 03 Aug 21:35:58 21:40:10 67° 259° (W) 21:44:23 437.405
BRITE-PL 03 Aug 21:39:00 21:40:19 11° 270° (W) 21:41:21 437.365/2234.400
DELFI C3 03 Aug 21:41:05 21:44:41 31° 72° (ENE) 21:48:20 145.870
ZACube-1 03 Aug 21:50:46 21:54:38 37° 72° (ENE) 21:58:38 437.345
SEEDS 03 Aug 21:56:24 22:00:10 30° 264° (W) 22:03:55 437.485
RS-15 03 Aug 21:57:00 22:07:55 90° 201° (SSW) 22:19:17 29.354- 29.394
ISS 03 Aug 22:00:13 22:02:38 19° 336° (NNW) 22:05:01 145.825
CUTE 1.7 + AOD 2 03 Aug 22:04:41 22:07:56 20° 267° (W) 22:11:05 437.475
FUNcube-1 03 Aug 22:10:48 22:14:56 63° 75° (ENE) 22:19:12 145.935
HUMSAT D 03 Aug 22:13:53 22:17:22 27° 71° (ENE) 22:20:59 437.325/437.525
BEESAT 3 03 Aug 22:14:09 22:16:18 14° 110° (ESE) 22:18:37 437.485
CANX-2 03 Aug 22:14:29 22:16:57 14° 270° (W) 22:19:13 2200.000
AAUSAT CUBESAT 2 03 Aug 22:15:34 22:19:12 27° 265° (W) 22:22:47 437.432
Oscar 11 03 Aug 22:18:27 22:22:44 60° 260° (W) 22:27:03 145.826/435.025
UWE-3 03 Aug 22:20:54 22:25:05 71° 259° (W) 22:29:23 435.000/436.395/437.385
UKube-1 03 Aug 22:21:10 22:24:27 22° 68° (ENE) 22:27:50 .
CINEMA 3 03 Aug 22:33:07 22:36:02 18° 268° (W) 22:38:51 145.822/145.860
PHONESAT 2.4 03 Aug 22:35:22 22:38:52 66° 6° (N) 22:42:22 2401.200-2431.200
AIST 1 03 Aug 22:40:41 22:43:51 20° 73° (ENE) 22:47:06
AISAT 03 Aug 22:41:08 22:44:39 24° 69° (ENE) 22:48:13 437.250
CUBEBUG 2 03 Aug 22:43:18 22:47:00 30° 265° (W) 22:50:46 437.445
Cosmos 2491 03 Aug 22:45:44 22:53:07 31° 69° (ENE) 23:00:42 435.465 / 435.565
CUBEBUG 1 03 Aug 22:47:08 22:49:36 15° 67° (ENE) 22:52:14 437.445
50 SAT 03 Aug 22:50:06 22:53:31 31° 72° (ENE) 22:57:02 437.505
M-CUBED/EXP-1 PRIME 03 Aug 22:51:53 22:56:38 59° 105° (ESE) 23:01:11 437.505
DX 1 03 Aug 22:52:49 22:57:02 55° 74° (ENE) 23:01:18 434.975-435.025
YUBILEINY 03 Aug 23:07:27 23:12:13 17° 80° (E) 23:17:34 435.215
VERMONT LUNAR 03 Aug 23:12:04 23:14:28 19° 211° (SSW) 23:16:49 437.305
BEESAT 2 03 Aug 23:14:22 23:18:20 53° 117° (ESE) 23:22:21 435.950
UNISAT 6 03 Aug 23:15:19 23:19:36 35° 96° (E) 23:23:56 437.425
DELFI C3 03 Aug 23:16:57 23:19:50 18° 268° (W) 23:22:37 145.870
VELOX 1 03 Aug 23:18:17 23:22:38 60° 74° (ENE) 23:26:58 145.980
AUBIESAT-1 03 Aug 23:18:22 23:23:08 84° 287° (WNW) 23:27:40 437.475
DUCHIFAT 1 03 Aug 23:23:27 23:25:29 14° 90° (E) 23:27:45 145.980
ZACube-1 03 Aug 23:28:26 23:31:12 16° 269° (W) 23:33:51 437.345
QB50P1 03 Aug 23:28:33 23:31:12 16° 92° (E) 23:34:01 145.935-145.965
NANOSAT C BR1 03 Aug 23:28:34 23:31:10 16° 92° (E) 23:33:56 145.865
AIST 2 03 Aug 23:30:45 23:33:25 17° 111° (ESE) 23:36:15 435.215
ESTCUBE 1 03 Aug 23:41:37 23:46:08 76° 77° (ENE) 23:50:42 437.505/2401.250
HUMSAT D 03 Aug 23:49:49 23:53:07 22° 267° (W) 23:56:22 437.325/437.525
BEESAT 3 03 Aug 23:49:57 23:53:53 46° 305° (NW) 23:57:51 437.485
UKube-1 03 Aug 23:56:37 00:00:26 30° 263° (W) 00:04:14 .
TIGRISAT 03 Aug 23:57:05 00:01:49 86° 283° (WNW) 00:06:32 435.000
ANTELSAT 04 Aug 00:00:13 00:04:57 77° 284° (WNW) 00:09:39 437.575/2403.000
POLYITAN 1 04 Aug 00:12:04 00:16:17 54° 100° (E) 00:20:30 437.675
RS-15 04 Aug 00:12:45 00:22:08 30° 327° (NNW) 00:31:37 29.354- 29.394
PHONESAT 2.4 04 Aug 00:13:24 00:16:50 49° 202° (SSW) 00:20:12 2401.200-2431.200
BUGSAT 1 04 Aug 00:16:08 00:19:52 34° 97° (E) 00:23:39 437.445
AISAT 04 Aug 00:17:18 00:21:07 28° 264° (W) 00:24:53 437.250
AIST 1 04 Aug 00:17:52 00:21:32 28° 269° (W) 00:25:08
CUBEBUG 1 04 Aug 00:21:27 00:25:38 45° 261° (W) 00:29:48 437.445
50 SAT 04 Aug 00:25:33 00:28:11 17° 268° (W) 00:30:43 437.505
POPSAT HIP 1 04 Aug 00:27:50 00:32:07 82° 101° (E) 00:36:24 437.405
M-CUBED/EXP-1 PRIME 04 Aug 00:27:56 00:30:55 16° 300° (WNW) 00:33:41 437.505
DX 1 04 Aug 00:31:58 00:33:42 12° 270° (W) 00:35:10 434.975-435.025
QB50P2 04 Aug 00:36:19 00:40:36 77° 284° (WNW) 00:44:52 145.880/145.840
Cosmos 2491 04 Aug 00:42:01 00:50:27 54° 269° (W) 00:58:47 435.465 / 435.565
TISAT 1 04 Aug 00:45:17 00:49:21 55° 74° (ENE) 00:53:27 437.305
SPROUT 04 Aug 00:45:26 00:49:42 87° 257° (WSW) 00:53:59 437.525
UNISAT 6 04 Aug 00:52:28 00:56:11 23° 292° (WNW) 00:59:48 437.425
BEESAT 2 04 Aug 00:54:06 00:56:44 16° 315° (NW) 00:59:15 435.950
DUCHIFAT 1 04 Aug 00:57:30 01:01:35 46° 287° (WNW) 01:05:39 145.980
VELOX 1 04 Aug 00:58:16 00:59:38 11° 271° (W) 01:00:44 145.980
YUBILEINY 04 Aug 00:59:18 01:08:01 87° 275° (W) 01:16:51 435.215
NANOSAT C BR1 04 Aug 01:03:13 01:07:11 39° 288° (WNW) 01:11:09 145.865
QB50P1 04 Aug 01:03:17 01:07:15 38° 288° (WNW) 01:11:11 145.935-145.965
AIST 2 04 Aug 01:07:38 01:11:42 43° 306° (NW) 01:15:47 435.215
BEESAT 04 Aug 01:11:25 01:14:43 19° 67° (ENE) 01:18:10 436.000
ISS 04 Aug 01:16:28 01:17:44 12° 16° (NNE) 01:19:04 145.825
SWISSCUBE 04 Aug 01:31:23 01:35:38 33° 70° (ENE) 01:39:57 437.505
O/OREOS (USA 219) 04 Aug 01:45:51 01:50:18 70° 292° (WNW) 01:54:48 437.305
POLYITAN 1 04 Aug 01:49:43 01:51:46 13° 294° (WNW) 01:53:37 437.675
BUGSAT 1 04 Aug 01:52:18 01:55:07 18° 291° (WNW) 01:57:50 437.445
PHONESAT 2.4 04 Aug 01:53:28 01:54:18 11° 216° (SW) 01:55:00 2401.200-2431.200
ITUPSAT 1 04 Aug 01:53:28 01:58:06 50° 73° (ENE) 02:02:46 437.325
Cosmos 2504 04 Aug 02:08:22 02:14:17 30° 85° (E) 02:20:43 435.465 / 435.565
Gurwin Techsat 1B 04 Aug 02:22:14 02:24:38 13° 89° (E) 02:27:21 435.225
TISAT 1 04 Aug 02:24:22 02:25:32 11° 271° (W) 02:26:27 437.305
ITAMSAT 1 04 Aug 02:26:41 02:28:34 12° 88° (E) 02:30:46 435.822/435.867
RS-15 04 Aug 02:33:05 02:39:56 17° 1° (N) 02:47:00 29.354- 29.394
Oscar 19 04 Aug 02:35:29 02:40:39 65° 102° (ESE) 02:45:48 437.125/150
BEESAT 04 Aug 02:47:42 02:52:17 43° 261° (W) 02:56:51 436.000
KKS-1 04 Aug 02:49:28 02:53:19 31° 71° (ENE) 02:57:15 437.445
ISS 04 Aug 02:51:41 02:54:50 45° 34° (NE) 02:57:59 145.825
YUBILEINY 04 Aug 03:00:54 03:06:24 17° 299° (WNW) 03:11:24 435.215
SWISSCUBE 04 Aug 03:09:37 03:13:32 24° 266° (W) 03:17:22 437.505
JAS-2 04 Aug 03:16:36 03:22:44 25° 89° (E) 03:28:56 435.910
ITUPSAT 1 04 Aug 03:33:18 03:36:19 16° 269° (W) 03:39:09 437.325
STARS 04 Aug 03:50:25 03:54:47 89° 77° (ENE) 03:59:11 437.465
JUGNU 04 Aug 03:51:25 03:53:28 12° 177° (S) 03:55:32 437.505
Cosmos 2504 04 Aug 03:59:18 04:06:10 46° 285° (WNW) 04:13:29 435.465 / 435.565
Gurwin Techsat 1B 04 Aug 03:59:56 04:05:13 68° 286° (WNW) 04:10:29 435.225
MOZHAYETS 4 04 Aug 04:03:10 04:06:48 24° 69° (ENE) 04:10:32
ITAMSAT 1 04 Aug 04:03:32 04:08:42 72° 286° (WNW) 04:13:50 435.822/435.867
Oscar 19 04 Aug 04:16:28 04:19:30 15° 296° (WNW) 04:22:19 437.125/150
CUSAT 1 04 Aug 04:21:28 04:24:13 56° 98° (E) 04:26:46 437.405
DANDE 04 Aug 04:24:25 04:27:14 31° 98° (E) 04:29:42 436.750
KKS-1 04 Aug 04:26:31 04:30:00 22° 266° (W) 04:33:23 437.445
ISS 04 Aug 04:28:51 04:31:02 16° 229° (SW) 04:33:09 145.825
RS-15 04 Aug 04:47:46 04:57:41 32° 35° (NE) 05:08:11 29.354- 29.394
AO-7 04 Aug 04:57:26 05:05:33 55° 102° (ESE) 05:13:39 29.400- 29.500
JAS-2 04 Aug 05:00:30 05:08:18 65° 288° (WNW) 05:15:50 435.910
HORYU 2 04 Aug 05:24:35 05:29:06 72° 285° (WNW) 05:33:34 437.375
MOZHAYETS 4 04 Aug 05:39:41 05:43:52 32° 264° (W) 05:48:02
JUGNU 04 Aug 05:40:25 05:41:36 11° 187° (S) 05:42:43 437.505
GONETS M04 04 Aug 05:42:09 05:50:02 42° 88° (E) 05:58:02
SRMSAT 04 Aug 05:49:23 05:51:25 12° 178° (S) 05:53:28 437.500
CUBESAT XI-V 04 Aug 06:05:31 06:09:50 38° 72° (ENE) 06:14:09 437.345
STRAND 1 04 Aug 06:17:35 06:20:54 18° 65° (ENE) 06:24:24 437.568
Cubesat XI-IV 04 Aug 06:40:15 06:44:21 23° 93° (E) 06:48:35 437.490
JAS-2 04 Aug 06:48:26 06:52:03 13° 304° (NW) 06:55:10 435.910
AO-7 04 Aug 06:50:48 06:58:02 33° 299° (WNW) 07:05:04 29.400- 29.500
RS-15 04 Aug 07:00:00 07:11:53 88° 239° (WSW) 07:24:10 29.354- 29.394
Cosmos 2499 04 Aug 07:03:40 07:09:47 30° 85° (E) 07:16:30 435.465 / 435.565
PRISM 04 Aug 07:21:28 07:25:34 58° 74° (ENE) 07:29:41 437.425
CUTE-I 04 Aug 07:34:17 07:39:37 76° 102° (ESE) 07:44:55 437.470
BEESAT 2 04 Aug 07:35:08 07:38:20 22° 48° (NE) 07:41:34 435.950
GONETS M04 04 Aug 07:38:50 07:46:56 40° 287° (WNW) 07:54:55
SRMSAT 04 Aug 07:39:12 07:39:42 10° 188° (S) 07:40:08 437.500
CUBESAT XI-V 04 Aug 07:43:57 07:47:25 20° 268° (W) 07:50:44 437.345
STRAND 1 04 Aug 07:54:43 07:59:44 53° 260° (W) 08:04:46 437.568
BRITE-PL 04 Aug 08:03:00 08:06:14 19° 93° (E) 08:09:47 437.365/2234.400
BEESAT 3 04 Aug 08:09:32 08:13:33 64° 57° (ENE) 08:17:30 437.485
Cubesat XI-IV 04 Aug 08:19:40 08:24:39 41° 290° (WNW) 08:29:35 437.490
SO-50 04 Aug 08:37:04 08:41:30 42° 115° (ESE) 08:46:07 436.795
HO-68 04 Aug 08:48:03 08:53:36 25° 93° (E) 08:59:22 435.675
CINEMA 3 04 Aug 08:53:34 08:53:58 10° 88° (E) 08:54:44 145.822/145.860
Cosmos 2499 04 Aug 08:55:23 09:02:35 49° 285° (WNW) 09:10:20 435.465 / 435.565
PRISM 04 Aug 09:00:32 09:01:26 10° 271° (W) 09:02:02 437.425
PCSat 04 Aug 09:03:15 09:08:39 87° 119° (ESE) 09:14:07 145.827
DOVE 4 04 Aug 09:05:46 09:10:02 33° 96° (E) 09:14:35 437.250
BEESAT 2 04 Aug 09:12:48 09:16:27 32° 246° (WSW) 09:20:00 435.950
RS-15 04 Aug 09:14:40 09:23:09 22° 257° (WSW) 09:31:00 29.354- 29.394
CUTE-I 04 Aug 09:16:25 09:19:07 14° 298° (WNW) 09:21:33 437.470
COMPASS 1 04 Aug 09:21:28 09:24:40 21° 93° (E) 09:27:56 437.405
AIST 2 04 Aug 09:30:25 09:34:37 78° 58° (ENE) 09:38:44 435.215
GOMX 1 04 Aug 09:33:39 09:38:18 77° 284° (WNW) 09:43:17 467.674
M-CUBED/EXP-1 PRIME 04 Aug 09:38:13 09:42:14 57° 70° (ENE) 09:46:38 437.505
BRITE-PL 04 Aug 09:40:44 09:44:54 38° 287° (WNW) 09:49:19 437.365/2234.400
SEEDS 04 Aug 09:41:33 09:45:41 47° 99° (E) 09:49:46 437.485
CUTE 1.7 + AOD 2 04 Aug 09:49:56 09:54:15 77° 101° (ESE) 09:58:31 437.475
CANX-2 04 Aug 09:58:53 10:03:12 75° 284° (WNW) 10:07:27 2200.000
AAUSAT CUBESAT 2 04 Aug 09:59:10 10:03:15 49° 99° (E) 10:07:19 437.432
FUNcube-1 04 Aug 10:01:47 10:04:14 15° 90° (E) 10:06:54 145.935
AUBIESAT-1 04 Aug 10:04:05 10:08:12 84° 253° (WSW) 10:12:41 437.475
Oscar 11 04 Aug 10:07:35 10:11:15 27° 95° (E) 10:14:59 145.826/435.025
UWE-3 04 Aug 10:12:16 10:16:09 26° 94° (E) 10:20:09 435.000/436.395/437.385
UNISAT 6 04 Aug 10:13:21 10:16:54 25° 69° (ENE) 10:20:37 437.425
SO-50 04 Aug 10:18:16 10:22:14 25° 314° (NW) 10:26:14 436.795
O/OREOS (USA 219) 04 Aug 10:19:00 10:22:00 17° 56° (NE) 10:25:08 437.305
NANOSAT C BR1 04 Aug 10:21:48 10:22:36 11° 65° (ENE) 10:23:39 145.865
QB50P1 04 Aug 10:21:50 10:22:50 11° 65° (ENE) 10:24:05 145.935-145.965
CINEMA 3 04 Aug 10:26:56 10:31:43 78° 284° (WNW) 10:36:39 145.822/145.860
